Time,TemperatureF,DewpointF,PressureIn,WindDirection,WindDirectionDegrees,WindSpeedMPH,WindSpeedGustMPH,Humidity,HourlyPrecipIn,Conditions,Clouds,dailyrainin,SoftwareType,DateUTC
2013-01-14 00:00:00,69.2,65.5,30.15,ESE,110,1.9,3.5,88,0.00,CLR,OVC,0.00,WeatherDisplay:10.37,2013-01-14 05:00:00,
2013-01-14 00:03:00,69.3,65.6,30.15,East,93,0.0,0.0,88,0.00,CLR,OVC,0.00,WeatherDisplay:10.37,2013-01-14 05:03:00,
2013-01-14 00:04:00,69.3,65.6,30.15,East,93,0.0,0.0,88,0.00,CLR,OVC,0.00,WeatherDisplay:10.37,2013-01-14 05:04:00,
2013-01-14 00:09:00,69.3,65.6,30.15,East,93,0.0,0.0,88,0.00,CLR,OVC,0.00,WeatherDisplay:10.37,2013-01-14 05:09:00,
2013-01-14 00:14:00,69.2,65.5,30.15,East,93,0.0,0.0,88,0.00,CLR,OVC,0.00,WeatherDisplay:10.37,2013-01-14 05:14:00,
2013-01-14 00:19:00,69.0,65.3,30.15,East,93,0.0,0.0,88,0.00,CLR,OVC,0.00,WeatherDisplay:10.37,2013-01-14 05:19:00,
2013-01-14 00:24:00,68.9,65.2,30.15,East,93,0.0,0.0,88,0.00,CLR,OVC,0.00,WeatherDisplay:10.37,2013-01-14 05:24:00,
2013-01-14 00:29:00,68.8,65.1,30.15,East,93,0.0,0.0,88,0.00,CLR,OVC,0.00,WeatherDisplay:10.37,2013-01-14 05:29:00,
2013-01-14 00:34:00,69.1,65.4,30.15,ENE,61,0.2,1.1,88,0.00,CLR,OVC,0.00,WeatherDisplay:10.37,2013-01-14 05:34:00,
2013-01-14 00:39:00,69.1,65.7,30.15,NE,49,0.0,0.0,89,0.00,CLR,OVC,0.00,WeatherDisplay:10.37,2013-01-14 05:39:00,
2013-01-14 00:44:00,69.3,65.9,30.15,ESE,117,0.8,2.3,89,0.00,CLR,OVC,0.00,WeatherDisplay:10.37,2013-01-14 05:44:00,
2013-01-14 00:49:00,69.4,66.0,30.15,ESE,120,1.5,3.5,89,0.00,CLR,OVC,0.00,WeatherDisplay:10.37,2013-01-14 05:49:00,
2013-01-14 00:54:00,69.4,66.0,30.15,ESE,107,3.6,4.6,89,0.00,CLR,OVC,0.00,WeatherDisplay:10.37,2013-01-14 05:54:00,
2013-01-14 00:59:00,69.4,66.0,30.15,East,97,0.6,2.3,89,0.00,CLR,OVC,0.00,WeatherDisplay:10.37,2013-01-14 05:59:00,
2013-01-14 01:04:00,69.4,66.0,30.15,East,89,1.5,2.3,89,0.00,CLR,OVC,0.00,WeatherDisplay:10.37,2013-01-14 06:04:00,
2013-01-14 01:09:00,69.5,66.1,30.15,ESE,110,0.9,2.3,89,0.00,CLR,OVC,0.00,WeatherDisplay:10.37,2013-01-14 06:09:00,
2013-01-14 01:14:00,69.4,66.0,30.15,East,92,0.2,1.1,89,0.00,CLR,OVC,0.00,WeatherDisplay:10.37,2013-01-14 06:14:00,
2013-01-14 01:19:00,69.2,65.8,30.15,NE,48,1.0,2.3,89,0.00,CLR,OVC,0.00,WeatherDisplay:10.37,2013-01-14 06:19:00,
2013-01-14 01:24:00,69.3,65.9,30.16,ENE,61,0.0,1.1,89,0.00,CLR,OVC,0.00,WeatherDisplay:10.37,2013-01-14 06:24:00,
2013-01-14 01:29:00,69.2,65.8,30.16,ESE,114,0.9,3.5,89,0.00,CLR,OVC,0.00,WeatherDisplay:10.37,2013-01-14 06:29:00,
2013-01-14 01:34:00,69.2,65.8,30.16,ENE,72,1.0,1.7,89,0.00,CLR,OVC,0.00,WeatherDisplay:10.37,2013-01-14 06:34:00,
2013-01-14 01:39:00,69.1,65.7,30.16,ENE,78,1.5,2.3,89,0.00,CLR,OVC,0.00,WeatherDisplay:10.37,2013-01-14 06:39:00,
2013-01-14 01:44:00,68.9,65.5,30.16,ESE,123,0.7,2.0,89,0.00,CLR,OVC,0.00,WeatherDisplay:10.37,2013-01-14 06:44:00,
2013-01-14 01:49:00,68.8,65.4,30.16,East,89,0.2,2.3,89,0.00,CLR,OVC,0.00,WeatherDisplay:10.37,2013-01-14 06:49:00,
2013-01-14 01:54:00,68.9,65.5,30.16,East,83,2.0,2.3,89,0.00,CLR,OVC,0.00,WeatherDisplay:10.37,2013-01-14 06:54:00,
2013-01-14 01:59:00,68.8,65.4,30.16,NE,55,0.0,0.0,89,0.00,CLR,OVC,0.00,WeatherDisplay:10.37,2013-01-14 06:59:00,
2013-01-14 02:04:00,68.9,65.8,30.16,SE,133,1.5,2.7,90,0.00,CLR,OVC,0.00,WeatherDisplay:10.37,2013-01-14 07:04:00,
2013-01-14 02:09:00,68.8,65.7,30.16,ENE,73,0.2,1.1,90,0.00,CLR,OVC,0.00,WeatherDisplay:10.37,2013-01-14 07:09:00,
2013-01-14 02:14:00,68.8,65.7,30.16,East,89,0.3,1.1,90,0.00,CLR,OVC,0.00,WeatherDisplay:10.37,2013-01-14 07:14:00,
2013-01-14 02:19:00,68.8,65.7,30.16,ESE,102,0.1,1.1,90,0.00,CLR,OVC,0.00,WeatherDisplay:10.37,2013-01-14 07:19:00,
2013-01-14 02:24:00,68.7,65.6,30.16,ESE,102,0.0,0.0,90,0.00,CLR,OVC,0.00,WeatherDisplay:10.37,2013-01-14 07:24:00,
2013-01-14 02:29:00,68.6,65.5,30.17,ESE,102,0.0,0.0,90,0.00,CLR,OVC,0.00,WeatherDisplay:10.37,2013-01-14 07:29:00,
2013-01-14 02:34:00,68.7,65.6,30.17,ESE,102,0.0,0.0,90,0.00,CLR,OVC,0.00,WeatherDisplay:10.37,2013-01-14 07:34:00,
2013-01-14 02:39:00,68.7,65.6,30.17,ESE,102,0.0,0.0,90,0.00,CLR,OVC,0.00,WeatherDisplay:10.37,2013-01-14 07:39:00,
2013-01-14 02:44:00,68.8,65.7,30.16,ESE,119,0.3,2.4,90,0.00,CLR,OVC,0.00,WeatherDisplay:10.37,2013-01-14 07:44:00,
2013-01-14 02:49:00,68.8,65.7,30.17,SSE,158,2.4,3.5,90,0.00,CLR,OVC,0.00,WeatherDisplay:10.37,2013-01-14 07:49:00,
2013-01-14 02:54:00,69.1,66.0,30.16,SE,128,0.5,1.7,90,0.00,CLR,OVC,0.00,WeatherDisplay:10.37,2013-01-14 07:54:00,
2013-01-14 02:59:00,69.0,65.9,30.16,ESE,121,0.4,2.3,90,0.00,CLR,OVC,0.00,WeatherDisplay:10.37,2013-01-14 07:59:00,
2013-01-14 03:04:00,69.1,66.0,30.16,ESE,121,0.0,0.0,90,0.00,CLR,OVC,0.00,WeatherDisplay:10.37,2013-01-14 08:04:00,
2013-01-14 03:09:00,69.0,66.3,30.16,SE,130,0.0,0.0,91,0.00,CLR,OVC,0.00,WeatherDisplay:10.37,2013-01-14 08:09:00,
2013-01-14 03:14:00,69.0,66.3,30.16,SE,144,3.4,3.5,91,0.00,CLR,OVC,0.00,WeatherDisplay:10.37,2013-01-14 08:14:00,
2013-01-14 03:19:00,69.1,66.4,30.16,SSE,152,3.6,6.9,91,0.00,CLR,OVC,0.00,WeatherDisplay:10.37,2013-01-14 08:19:00,
2013-01-14 03:24:00,69.1,66.0,30.16,SSE,151,4.3,5.5,90,0.00,CLR,OVC,0.00,WeatherDisplay:10.37,2013-01-14 08:24:00,
2013-01-14 03:29:00,69.1,66.0,30.15,SE,143,2.4,3.5,90,0.00,CLR,OVC,0.00,WeatherDisplay:10.37,2013-01-14 08:29:00,
2013-01-14 03:34:00,69.2,66.1,30.15,SE,134,3.8,5.8,90,0.00,CLR,OVC,0.00,WeatherDisplay:10.37,2013-01-14 08:34:00,
2013-01-14 03:39:00,69.0,65.9,30.15,SSE,151,4.5,4.6,90,0.00,CLR,OVC,0.00,WeatherDisplay:10.37,2013-01-14 08:39:00,
2013-01-14 03:45:00,69.2,66.1,30.15,SSE,149,2.0,6.0,90,0.00,CLR,OVC,0.00,WeatherDisplay:10.37,2013-01-14 08:45:00,
2013-01-14 03:50:00,69.1,66.0,30.15,ESE,109,3.2,5.8,90,0.00,CLR,OVC,0.00,WeatherDisplay:10.37,2013-01-14 08:50:00,
2013-01-14 03:55:00,69.1,66.0,30.15,SE,137,4.4,8.1,90,0.00,CLR,OVC,0.00,WeatherDisplay:10.37,2013-01-14 08:55:00,
2013-01-14 04:00:00,69.0,65.9,30.15,SE,127,5.4,6.9,90,0.00,CLR,OVC,0.00,WeatherDisplay:10.37,2013-01-14 09:00:00,
2013-01-14 04:05:00,69.2,66.5,30.15,SSE,150,6.7,8.1,91,0.00,CLR,OVC,0.00,WeatherDisplay:10.37,2013-01-14 09:05:00,
2013-01-14 04:10:00,69.0,66.6,30.15,SE,143,6.3,6.9,92,0.00,CLR,OVC,0.00,WeatherDisplay:10.37,2013-01-14 09:10:00,
2013-01-14 04:15:00,68.8,66.4,30.14,SSE,150,5.5,8.1,92,0.00,CLR,OVC,0.00,WeatherDisplay:10.37,2013-01-14 09:15:00,
2013-01-14 04:20:00,68.7,66.3,30.14,SE,128,5.6,8.1,92,0.00,CLR,OVC,0.00,WeatherDisplay:10.37,2013-01-14 09:20:00,
2013-01-14 04:25:00,68.6,66.2,30.14,South,175,5.0,6.9,92,0.00,CLR,OVC,0.00,WeatherDisplay:10.37,2013-01-14 09:25:00,
2013-01-14 04:30:00,68.6,66.2,30.14,SSE,167,5.5,5.8,92,0.00,CLR,OVC,0.00,WeatherDisplay:10.37,2013-01-14 09:30:00,
2013-01-14 04:35:00,68.6,66.2,30.14,SE,137,5.0,6.0,92,0.00,CLR,OVC,0.00,WeatherDisplay:10.37,2013-01-14 09:35:00,
2013-01-14 04:40:00,68.4,66.0,30.14,SSE,152,6.6,8.1,92,0.00,CLR,OVC,0.00,WeatherDisplay:10.37,2013-01-14 09:40:00,
2013-01-14 04:45:00,68.4,66.0,30.14,SE,145,5.0,8.0,92,0.00,CLR,OVC,0.00,WeatherDisplay:10.37,2013-01-14 09:45:00,
2013-01-14 04:50:00,68.3,65.9,30.14,SE,127,5.5,8.1,92,0.00,CLR,OVC,0.00,WeatherDisplay:10.37,2013-01-14 09:50:00,
2013-01-14 04:55:00,68.3,65.9,30.13,SSE,151,3.2,4.6,92,0.00,CLR,OVC,0.00,WeatherDisplay:10.37,2013-01-14 09:55:00,
2013-01-14 05:00:00,68.2,65.8,30.13,SSE,147,4.8,6.9,92,0.00,CLR,OVC,0.00,WeatherDisplay:10.37,2013-01-14 10:00:00,
2013-01-14 05:05:00,68.0,65.6,30.13,SE,143,2.8,3.6,92,0.00,CLR,OVC,0.00,WeatherDisplay:10.37,2013-01-14 10:05:00,
2013-01-14 05:10:00,67.8,65.4,30.13,ENE,69,1.6,2.3,92,0.00,CLR,OVC,0.00,WeatherDisplay:10.37,2013-01-14 10:10:00,
2013-01-14 05:15:00,67.8,65.4,30.14,SE,127,1.9,2.3,92,0.00,CLR,OVC,0.00,WeatherDisplay:10.37,2013-01-14 10:15:00,
2013-01-14 05:20:00,67.9,65.5,30.13,ENE,75,1.9,4.6,92,0.00,CLR,OVC,0.00,WeatherDisplay:10.37,2013-01-14 10:20:00,
2013-01-14 05:25:00,67.7,65.6,30.13,SSE,151,1.8,3.5,93,0.00,CLR,OVC,0.00,WeatherDisplay:10.37,2013-01-14 10:25:00,
2013-01-14 05:30:00,67.8,65.4,30.13,ESE,106,3.2,3.5,92,0.00,CLR,OVC,0.00,WeatherDisplay:10.37,2013-01-14 10:30:00,
2013-01-14 05:35:00,67.4,65.0,30.14,ESE,120,2.5,3.5,92,0.00,CLR,OVC,0.00,WeatherDisplay:10.37,2013-01-14 10:35:00,
2013-01-14 05:40:00,67.3,64.9,30.14,NNE,25,2.3,4.6,92,0.00,CLR,OVC,0.00,WeatherDisplay:10.37,2013-01-14 10:40:00,
2013-01-14 05:45:00,67.3,64.9,30.14,SSE,164,2.2,4.6,92,0.00,CLR,OVC,0.00,WeatherDisplay:10.37,2013-01-14 10:45:00,
2013-01-14 05:50:00,67.2,64.8,30.14,East,85,2.1,3.5,92,0.00,CLR,OVC,0.00,WeatherDisplay:10.37,2013-01-14 10:50:00,
2013-01-14 05:55:00,67.1,64.7,30.14,NE,49,1.0,2.3,92,0.00,CLR,OVC,0.00,WeatherDisplay:10.37,2013-01-14 10:55:00,
2013-01-14 06:00:00,67.2,64.8,30.14,ENE,58,2.2,3.5,92,0.00,CLR,OVC,0.00,WeatherDisplay:10.37,2013-01-14 11:00:00,
2013-01-14 06:05:00,67.0,64.5,30.14,East,86,2.0,5.0,92,0.00,CLR,OVC,0.00,WeatherDisplay:10.37,2013-01-14 11:05:00,
2013-01-14 06:10:00,67.0,64.6,30.15,ESE,109,1.9,4.6,92,0.00,CLR,OVC,0.00,WeatherDisplay:10.37,2013-01-14 11:10:00,
2013-01-14 06:15:00,66.9,64.5,30.15,ENE,66,0.0,0.0,92,0.00,CLR,OVC,0.00,WeatherDisplay:10.37,2013-01-14 11:15:00,
2013-01-14 06:20:00,66.8,64.4,30.15,ESE,119,2.3,3.5,92,0.00,CLR,OVC,0.00,WeatherDisplay:10.37,2013-01-14 11:20:00,
2013-01-14 06:25:00,66.8,64.4,30.15,North,8,2.5,3.5,92,0.00,CLR,OVC,0.00,WeatherDisplay:10.37,2013-01-14 11:25:00,
2013-01-14 06:30:00,66.8,64.4,30.15,East,83,2.0,4.6,92,0.00,CLR,OVC,0.00,WeatherDisplay:10.37,2013-01-14 11:30:00,
2013-01-14 06:35:00,66.5,64.1,30.16,SSE,150,1.8,3.5,92,0.00,CLR,OVC,0.00,WeatherDisplay:10.37,2013-01-14 11:35:00,
2013-01-14 06:40:00,66.6,64.2,30.16,East,93,0.6,2.3,92,0.00,CLR,OVC,0.00,WeatherDisplay:10.37,2013-01-14 11:40:00,
2013-01-14 06:45:00,66.4,64.0,30.16,SSE,158,2.2,3.5,92,0.00,CLR,OVC,0.00,WeatherDisplay:10.37,2013-01-14 11:45:00,
2013-01-14 06:50:00,66.5,64.1,30.16,East,88,0.4,3.5,92,0.00,CLR,OVC,0.00,WeatherDisplay:10.37,2013-01-14 11:50:00,
2013-01-14 06:55:00,66.3,63.9,30.16,East,100,1.1,2.3,92,0.00,CLR,OVC,0.00,WeatherDisplay:10.37,2013-01-14 11:55:00,
2013-01-14 07:00:00,66.1,63.7,30.16,ESE,113,0.5,3.5,92,0.00,CLR,OVC,0.00,WeatherDisplay:10.37,2013-01-14 12:00:00,
2013-01-14 07:05:00,66.0,63.6,30.17,ENE,65,0.0,2.3,92,0.00,CLR,OVC,0.00,WeatherDisplay:10.37,2013-01-14 12:05:00,
2013-01-14 07:10:00,66.0,63.6,30.17,ENE,58,0.6,3.5,92,0.00,CLR,OVC,0.00,WeatherDisplay:10.37,2013-01-14 12:10:00,
2013-01-14 07:15:00,65.9,63.5,30.17,East,97,1.0,3.5,92,0.00,CLR,OVC,0.00,WeatherDisplay:10.37,2013-01-14 12:15:00,
2013-01-14 07:20:00,65.9,63.5,30.17,NE,41,0.0,0.0,92,0.00,CLR,OVC,0.00,WeatherDisplay:10.37,2013-01-14 12:20:00,
2013-01-14 07:25:00,65.9,63.5,30.17,ENE,64,0.4,2.3,92,0.00,CLR,OVC,0.00,WeatherDisplay:10.37,2013-01-14 12:25:00,
2013-01-14 07:30:00,65.8,63.7,30.17,ENE,73,1.8,3.5,93,0.00,CLR,OVC,0.00,WeatherDisplay:10.37,2013-01-14 12:30:00,
2013-01-14 07:35:00,65.9,63.8,30.17,East,100,3.0,4.6,93,0.00,CLR,OVC,0.00,WeatherDisplay:10.37,2013-01-14 12:35:00,
2013-01-14 07:40:00,66.0,63.9,30.18,SE,127,1.6,2.3,93,0.00,CLR,OVC,0.00,WeatherDisplay:10.37,2013-01-14 12:40:00,
2013-01-14 07:45:00,65.8,63.7,30.18,East,93,1.2,2.3,93,0.00,CLR,OVC,0.00,WeatherDisplay:10.37,2013-01-14 12:45:00,
2013-01-14 07:50:00,66.0,63.9,30.18,SSE,147,2.2,3.5,93,0.00,CLR,OVC,0.00,WeatherDisplay:10.37,2013-01-14 12:50:00,
2013-01-14 07:55:00,66.0,63.9,30.18,SE,124,2.4,3.5,93,0.00,CLR,OVC,0.00,WeatherDisplay:10.37,2013-01-14 12:55:00,
2013-01-14 08:00:00,66.1,64.0,30.18,SE,131,1.7,3.5,93,0.00,CLR,OVC,0.00,WeatherDisplay:10.37,2013-01-14 13:00:00,
2013-01-14 08:05:00,66.2,64.4,30.18,ESE,113,4.0,4.6,94,0.00,CLR,OVC,0.00,WeatherDisplay:10.37,2013-01-14 13:05:00,
2013-01-14 08:10:00,66.2,64.4,30.19,SSE,160,1.1,4.6,94,0.00,CLR,OVC,0.00,WeatherDisplay:10.37,2013-01-14 13:10:00,
2013-01-14 08:15:00,66.6,64.8,30.19,SE,138,2.2,3.5,94,0.00,CLR,OVC,0.00,WeatherDisplay:10.37,2013-01-14 13:15:00,
2013-01-14 08:20:00,66.6,64.5,30.19,East,99,2.0,2.9,93,0.00,CLR,OVC,0.00,WeatherDisplay:10.37,2013-01-14 13:20:00,
2013-01-14 08:25:00,66.9,65.1,30.19,SE,127,2.3,3.5,94,0.00,CLR,OVC,0.00,WeatherDisplay:10.37,2013-01-14 13:25:00,
2013-01-14 08:30:00,67.2,65.1,30.19,SSE,162,2.0,3.5,93,0.00,CLR,OVC,0.00,WeatherDisplay:10.37,2013-01-14 13:30:00,
2013-01-14 08:35:00,67.4,65.3,30.19,East,96,2.5,4.6,93,0.00,CLR,OVC,0.00,WeatherDisplay:10.37,2013-01-14 13:35:00,
2013-01-14 08:40:00,67.8,65.7,30.20,SE,137,3.4,5.8,93,0.00,CLR,OVC,0.00,WeatherDisplay:10.37,2013-01-14 13:40:00,
2013-01-14 08:45:00,68.0,65.9,30.20,ENE,64,0.9,1.1,93,0.00,CLR,OVC,0.00,WeatherDisplay:10.37,2013-01-14 13:45:00,
2013-01-14 08:50:00,68.1,66.0,30.20,South,178,1.9,2.3,93,0.00,CLR,OVC,0.00,WeatherDisplay:10.37,2013-01-14 13:50:00,
2013-01-14 08:55:00,68.5,66.1,30.20,South,189,2.7,4.8,92,0.00,CLR,OVC,0.00,WeatherDisplay:10.37,2013-01-14 13:55:00,
2013-01-14 09:00:00,68.7,66.3,30.19,SE,131,5.7,6.9,92,0.00,CLR,OVC,0.00,WeatherDisplay:10.37,2013-01-14 14:00:00,
2013-01-14 09:05:00,69.2,66.8,30.19,SSE,157,5.2,5.8,92,0.00,CLR,OVC,0.00,WeatherDisplay:10.37,2013-01-14 14:05:00,
2013-01-14 09:10:00,69.6,66.9,30.20,East,85,1.8,8.1,91,0.00,CLR,OVC,0.00,WeatherDisplay:10.37,2013-01-14 14:10:00,
2013-01-14 09:15:00,69.8,66.4,30.20,ESE,103,3.9,6.9,89,0.00,CLR,OVC,0.00,WeatherDisplay:10.37,2013-01-14 14:15:00,
2013-01-14 09:20:00,70.1,66.7,30.19,SE,138,5.9,8.1,89,0.00,CLR,OVC,0.00,WeatherDisplay:10.37,2013-01-14 14:20:00,
2013-01-14 09:25:00,70.5,66.8,30.19,SSE,165,6.1,10.4,88,0.00,CLR,OVC,0.00,WeatherDisplay:10.37,2013-01-14 14:25:00,
2013-01-14 09:30:00,70.6,66.9,30.19,SE,136,5.5,6.9,88,0.00,CLR,OVC,0.00,WeatherDisplay:10.37,2013-01-14 14:30:00,
2013-01-14 09:35:00,71.0,66.6,30.20,SSE,162,6.0,6.9,86,0.00,CLR,OVC,0.00,WeatherDisplay:10.37,2013-01-14 14:35:00,
2013-01-14 09:41:00,71.5,67.1,30.20,South,172,6.6,8.1,86,0.00,CLR,OVC,0.00,WeatherDisplay:10.37,2013-01-14 14:41:00,
2013-01-14 09:46:00,71.8,67.0,30.20,SSE,155,5.9,6.9,85,0.00,CLR,OVC,0.00,WeatherDisplay:10.37,2013-01-14 14:46:00,
2013-01-14 09:51:00,72.1,67.0,30.20,SE,138,4.4,5.8,84,0.00,CLR,OVC,0.00,WeatherDisplay:10.37,2013-01-14 14:51:00,
2013-01-14 09:56:00,72.3,66.8,30.20,ESE,120,4.5,5.8,83,0.00,CLR,OVC,0.00,WeatherDisplay:10.37,2013-01-14 14:56:00,
2013-01-14 10:01:00,72.7,66.9,30.20,SSE,150,7.0,9.2,82,0.00,CLR,OVC,0.00,WeatherDisplay:10.37,2013-01-14 15:01:00,
2013-01-14 10:06:00,73.2,66.7,30.20,SE,128,5.6,6.9,80,0.00,CLR,OVC,0.00,WeatherDisplay:10.37,2013-01-14 15:06:00,
2013-01-14 10:11:00,73.7,66.4,30.21,SE,136,5.1,7.5,78,0.00,CLR,OVC,0.00,WeatherDisplay:10.37,2013-01-14 15:11:00,
2013-01-14 10:16:00,73.7,66.4,30.21,SE,137,5.2,6.9,78,0.00,CLR,OVC,0.00,WeatherDisplay:10.37,2013-01-14 15:16:00,
2013-01-14 10:21:00,74.2,65.8,30.20,South,178,6.4,8.1,75,0.00,CLR,OVC,0.00,WeatherDisplay:10.37,2013-01-14 15:21:00,
2013-01-14 10:26:00,74.8,66.0,30.20,SE,133,6.8,9.2,74,0.00,CLR,OVC,0.00,WeatherDisplay:10.37,2013-01-14 15:26:00,
2013-01-14 10:31:00,75.0,65.8,30.20,ESE,113,4.7,8.1,73,0.00,CLR,OVC,0.00,WeatherDisplay:10.37,2013-01-14 15:31:00,
2013-01-14 10:36:00,75.1,65.5,30.20,SE,145,5.3,8.1,72,0.00,CLR,OVC,0.00,WeatherDisplay:10.37,2013-01-14 15:36:00,
2013-01-14 10:41:00,75.5,65.4,30.20,East,96,4.8,8.1,71,0.00,CLR,OVC,0.00,WeatherDisplay:10.37,2013-01-14 15:41:00,
2013-01-14 10:46:00,75.4,64.5,30.20,SSE,158,8.5,12.7,69,0.00,CLR,OVC,0.00,WeatherDisplay:10.37,2013-01-14 15:46:00,
2013-01-14 10:51:00,76.0,64.7,30.19,South,175,8.0,9.2,68,0.00,CLR,OVC,0.00,WeatherDisplay:10.37,2013-01-14 15:51:00,
2013-01-14 10:56:00,76.2,64.4,30.19,SSE,150,7.3,10.4,67,0.00,CLR,OVC,0.00,WeatherDisplay:10.37,2013-01-14 15:56:00,
2013-01-14 11:01:00,76.2,64.4,30.19,ENE,73,4.9,8.1,67,0.00,CLR,OVC,0.00,WeatherDisplay:10.37,2013-01-14 16:01:00,
2013-01-14 11:06:00,76.3,64.5,30.19,SSE,161,6.9,9.5,67,0.00,CLR,OVC,0.00,WeatherDisplay:10.37,2013-01-14 16:06:00,
2013-01-14 11:11:00,77.0,65.6,30.19,SSE,165,8.9,10.4,68,0.00,CLR,OVC,0.00,WeatherDisplay:10.37,2013-01-14 16:11:00,
2013-01-14 11:16:00,77.4,64.7,30.19,SSE,158,8.4,10.4,65,0.00,CLR,OVC,0.00,WeatherDisplay:10.37,2013-01-14 16:16:00,
2013-01-14 11:21:00,77.5,64.4,30.19,ESE,121,9.2,11.5,64,0.00,CLR,OVC,0.00,WeatherDisplay:10.37,2013-01-14 16:21:00,
2013-01-14 11:26:00,77.8,64.2,30.19,SSE,165,8.9,12.7,63,0.00,CLR,OVC,0.00,WeatherDisplay:10.37,2013-01-14 16:26:00,
2013-01-14 11:31:00,78.3,63.7,30.19,SW,217,9.0,11.5,61,0.00,CLR,OVC,0.00,WeatherDisplay:10.37,2013-01-14 16:31:00,
2013-01-14 11:36:00,78.4,64.3,30.19,South,179,7.6,12.7,62,0.00,CLR,OVC,0.00,WeatherDisplay:10.37,2013-01-14 16:36:00,
2013-01-14 11:41:00,78.7,63.6,30.19,SSE,155,7.0,10.4,60,0.00,CLR,OVC,0.00,WeatherDisplay:10.37,2013-01-14 16:41:00,
2013-01-14 11:46:00,78.8,64.2,30.18,ESE,116,7.4,10.4,61,0.00,CLR,OVC,0.00,WeatherDisplay:10.37,2013-01-14 16:46:00,
2013-01-14 11:51:00,78.9,64.3,30.18,NE,47,7.0,9.2,61,0.00,CLR,OVC,0.00,WeatherDisplay:10.37,2013-01-14 16:51:00,
2013-01-14 11:56:00,79.2,64.1,30.18,South,178,9.5,11.5,60,0.00,CLR,OVC,0.00,WeatherDisplay:10.37,2013-01-14 16:56:00,
2013-01-14 12:01:00,79.3,62.7,30.18,SSW,198,9.7,13.8,57,0.00,CLR,OVC,0.00,WeatherDisplay:10.37,2013-01-14 17:01:00,
2013-01-14 12:06:00,79.4,62.8,30.18,South,172,9.2,11.5,57,0.00,CLR,OVC,0.00,WeatherDisplay:10.37,2013-01-14 17:06:00,
2013-01-14 12:11:00,79.1,62.6,30.18,SSE,158,7.1,10.4,57,0.00,CLR,OVC,0.00,WeatherDisplay:10.37,2013-01-14 17:11:00,
2013-01-14 12:16:00,79.0,60.9,30.18,South,185,7.3,9.2,54,0.00,CLR,OVC,0.00,WeatherDisplay:10.37,2013-01-14 17:16:00,
2013-01-14 12:21:00,79.5,61.4,30.18,South,185,11.5,13.8,54,0.00,CLR,OVC,0.00,WeatherDisplay:10.37,2013-01-14 17:21:00,
2013-01-14 12:26:00,80.2,62.6,30.17,East,82,10.1,13.8,55,0.00,CLR,OVC,0.00,WeatherDisplay:10.37,2013-01-14 17:26:00,
2013-01-14 12:31:00,80.8,62.6,30.17,SSE,154,8.4,13.1,54,0.00,CLR,OVC,0.00,WeatherDisplay:10.37,2013-01-14 17:31:00,
2013-01-14 12:36:00,81.3,60.9,30.17,SW,229,7.5,11.5,50,0.00,CLR,OVC,0.00,WeatherDisplay:10.37,2013-01-14 17:36:00,
2013-01-14 12:41:00,81.3,60.3,30.17,SW,226,6.4,9.2,49,0.00,CLR,OVC,0.00,WeatherDisplay:10.37,2013-01-14 17:41:00,
2013-01-14 12:46:00,81.3,62.0,30.16,SW,222,7.9,9.2,52,0.00,CLR,OVC,0.00,WeatherDisplay:10.37,2013-01-14 17:46:00,
2013-01-14 12:51:00,81.4,60.4,30.16,South,185,10.6,16.1,49,0.00,CLR,OVC,0.00,WeatherDisplay:10.37,2013-01-14 17:51:00,
2013-01-14 12:56:00,80.9,59.4,30.16,SW,222,8.9,13.8,48,0.00,CLR,OVC,0.00,WeatherDisplay:10.37,2013-01-14 17:56:00,
2013-01-14 13:01:00,81.1,61.3,30.16,SSW,195,11.6,12.7,51,0.00,CLR,OVC,0.00,WeatherDisplay:10.37,2013-01-14 18:01:00,
2013-01-14 13:06:00,81.3,60.9,30.15,SSW,205,6.8,12.7,50,0.00,CLR,OVC,0.00,WeatherDisplay:10.37,2013-01-14 18:06:00,
2013-01-14 13:11:00,80.5,60.7,30.15,SSW,202,9.9,13.8,51,0.00,CLR,OVC,0.00,WeatherDisplay:10.37,2013-01-14 18:11:00,
2013-01-14 13:16:00,80.3,61.6,30.15,SSW,192,9.4,11.4,53,0.00,CLR,OVC,0.00,WeatherDisplay:10.37,2013-01-14 18:16:00,
2013-01-14 13:21:00,80.7,61.4,30.14,South,182,7.2,8.3,52,0.00,CLR,OVC,0.00,WeatherDisplay:10.37,2013-01-14 18:21:00,
2013-01-14 13:26:00,81.5,61.1,30.14,WSW,257,6.7,10.4,50,0.00,CLR,OVC,0.00,WeatherDisplay:10.37,2013-01-14 18:26:00,
2013-01-14 13:31:00,82.1,60.5,30.14,South,185,8.8,12.7,48,0.00,CLR,OVC,0.00,WeatherDisplay:10.37,2013-01-14 18:31:00,
2013-01-14 13:36:00,82.1,59.9,30.14,SSW,196,9.3,13.8,47,0.00,CLR,OVC,0.00,WeatherDisplay:10.37,2013-01-14 18:36:00,
2013-01-14 13:41:00,82.1,61.0,30.14,SW,236,5.6,8.1,49,0.00,CLR,OVC,0.00,WeatherDisplay:10.37,2013-01-14 18:41:00,
2013-01-14 13:46:00,82.8,61.1,30.14,SSE,168,9.7,15.0,48,0.00,CLR,OVC,0.00,WeatherDisplay:10.37,2013-01-14 18:46:00,
2013-01-14 13:51:00,82.7,61.0,30.14,South,186,6.8,8.1,48,0.00,CLR,OVC,0.00,WeatherDisplay:10.37,2013-01-14 18:51:00,
2013-01-14 13:56:00,82.2,60.6,30.14,SSW,208,6.4,11.5,48,0.00,CLR,OVC,0.00,WeatherDisplay:10.37,2013-01-14 18:56:00,
2013-01-14 14:01:00,82.8,61.7,30.14,South,178,8.1,11.5,49,0.00,CLR,OVC,0.00,WeatherDisplay:10.37,2013-01-14 19:01:00,
2013-01-14 14:06:00,83.5,61.7,30.14,SSW,196,9.5,11.5,48,0.00,CLR,OVC,0.00,WeatherDisplay:10.37,2013-01-14 19:06:00,
2013-01-14 14:11:00,83.9,60.9,30.14,WSW,243,7.4,9.2,46,0.00,CLR,OVC,0.00,WeatherDisplay:10.37,2013-01-14 19:11:00,
2013-01-14 14:16:00,83.7,60.1,30.14,SSW,209,9.0,12.7,45,0.00,CLR,OVC,0.00,WeatherDisplay:10.37,2013-01-14 19:16:00,
2013-01-14 14:21:00,82.7,60.4,30.14,South,184,7.0,10.4,47,0.00,CLR,OVC,0.00,WeatherDisplay:10.37,2013-01-14 19:21:00,
2013-01-14 14:26:00,82.8,59.9,30.14,SSW,195,9.0,12.7,46,0.00,CLR,OVC,0.00,WeatherDisplay:10.37,2013-01-14 19:26:00,
2013-01-14 14:31:00,82.9,60.0,30.14,South,182,8.2,10.5,46,0.00,CLR,OVC,0.00,WeatherDisplay:10.37,2013-01-14 19:31:00,
2013-01-14 14:36:00,83.4,59.8,30.14,SSW,193,9.2,16.1,45,0.00,CLR,OVC,0.00,WeatherDisplay:10.37,2013-01-14 19:36:00,
2013-01-14 14:41:00,83.9,60.3,30.14,South,181,7.9,12.9,45,0.00,CLR,OVC,0.00,WeatherDisplay:10.37,2013-01-14 19:41:00,
2013-01-14 14:46:00,84.3,60.0,30.14,SSW,212,7.7,12.7,44,0.00,CLR,OVC,0.00,WeatherDisplay:10.37,2013-01-14 19:46:00,
2013-01-14 14:51:00,83.3,61.0,30.14,WNW,282,6.0,9.2,47,0.00,CLR,OVC,0.00,WeatherDisplay:10.37,2013-01-14 19:51:00,
2013-01-14 14:56:00,83.1,60.8,30.14,South,188,8.6,11.7,47,0.00,CLR,OVC,0.00,WeatherDisplay:10.37,2013-01-14 19:56:00,
2013-01-14 15:01:00,82.9,60.0,30.14,South,182,8.6,10.9,46,0.00,CLR,OVC,0.00,WeatherDisplay:10.37,2013-01-14 20:01:00,
2013-01-14 15:06:00,83.4,59.8,30.14,SW,229,6.3,10.4,45,0.00,CLR,OVC,0.00,WeatherDisplay:10.37,2013-01-14 20:06:00,
2013-01-14 15:11:00,83.8,60.2,30.14,SSW,203,9.6,12.7,45,0.00,CLR,OVC,0.00,WeatherDisplay:10.37,2013-01-14 20:11:00,
2013-01-14 15:16:00,84.5,61.4,30.14,SSE,164,7.1,11.5,46,0.00,CLR,OVC,0.00,WeatherDisplay:10.37,2013-01-14 20:16:00,
2013-01-14 15:21:00,84.4,58.8,30.14,SW,215,8.0,12.7,42,0.00,CLR,OVC,0.00,WeatherDisplay:10.37,2013-01-14 20:21:00,
2013-01-14 15:26:00,83.7,59.5,30.14,SW,223,5.6,10.4,44,0.00,CLR,OVC,0.00,WeatherDisplay:10.37,2013-01-14 20:26:00,
2013-01-14 15:31:00,82.5,59.6,30.14,SSW,208,6.9,9.2,46,0.00,CLR,OVC,0.00,WeatherDisplay:10.37,2013-01-14 20:31:00,
2013-01-14 15:36:00,82.7,59.2,30.14,SSE,167,7.2,9.2,45,0.00,CLR,OVC,0.00,WeatherDisplay:10.37,2013-01-14 20:36:00,
2013-01-14 15:41:00,82.9,58.7,30.14,South,178,6.9,10.4,44,0.00,CLR,OVC,0.00,WeatherDisplay:10.37,2013-01-14 20:41:00,
2013-01-14 15:46:00,84.5,58.9,30.14,South,191,6.1,12.7,42,0.00,CLR,OVC,0.00,WeatherDisplay:10.37,2013-01-14 20:46:00,
2013-01-14 15:51:00,85.1,58.8,30.15,SSE,161,8.4,12.7,41,0.00,CLR,OVC,0.00,WeatherDisplay:10.37,2013-01-14 20:51:00,
2013-01-14 15:56:00,85.2,58.2,30.14,South,178,6.9,8.1,40,0.00,CLR,OVC,0.00,WeatherDisplay:10.37,2013-01-14 20:56:00,
2013-01-14 16:01:00,85.6,58.5,30.14,SW,232,4.8,10.4,40,0.00,CLR,OVC,0.00,WeatherDisplay:10.37,2013-01-14 21:01:00,
2013-01-14 16:06:00,85.8,59.4,30.15,SSW,200,5.4,10.4,41,0.00,CLR,OVC,0.00,WeatherDisplay:10.37,2013-01-14 21:06:00,
2013-01-14 16:11:00,85.8,58.7,30.15,SSW,202,5.2,8.1,40,0.00,CLR,OVC,0.00,WeatherDisplay:10.37,2013-01-14 21:11:00,
2013-01-14 16:16:00,85.2,58.8,30.15,SW,215,5.4,8.1,41,0.00,CLR,OVC,0.00,WeatherDisplay:10.37,2013-01-14 21:16:00,
2013-01-14 16:21:00,84.9,58.6,30.15,SW,222,4.8,8.1,41,0.00,CLR,OVC,0.00,WeatherDisplay:10.37,2013-01-14 21:21:00,
2013-01-14 16:26:00,84.5,59.5,30.15,South,184,3.8,8.3,43,0.00,CLR,OVC,0.00,WeatherDisplay:10.37,2013-01-14 21:26:00,
2013-01-14 16:31:00,84.4,58.8,30.15,SSW,195,3.3,5.8,42,0.00,CLR,OVC,0.00,WeatherDisplay:10.37,2013-01-14 21:31:00,
2013-01-14 16:36:00,84.1,59.8,30.15,South,186,5.8,9.2,44,0.00,CLR,OVC,0.00,WeatherDisplay:10.37,2013-01-14 21:36:00,
2013-01-14 16:41:00,84.4,59.5,30.15,SSE,165,3.1,9.2,43,0.00,CLR,OVC,0.00,WeatherDisplay:10.37,2013-01-14 21:41:00,
2013-01-14 16:46:00,85.0,59.3,30.15,SSE,167,7.9,12.7,42,0.00,CLR,OVC,0.00,WeatherDisplay:10.37,2013-01-14 21:46:00,
2013-01-14 16:51:00,85.1,59.4,30.16,South,191,7.2,9.2,42,0.00,CLR,OVC,0.00,WeatherDisplay:10.37,2013-01-14 21:51:00,
2013-01-14 16:56:00,83.2,60.3,30.16,South,181,7.1,8.1,46,0.00,CLR,OVC,0.00,WeatherDisplay:10.37,2013-01-14 21:56:00,
2013-01-14 17:01:00,81.8,59.6,30.16,South,182,5.5,8.1,47,0.00,CLR,OVC,0.00,WeatherDisplay:10.37,2013-01-14 22:01:00,
2013-01-14 17:06:00,80.7,59.8,30.16,SW,215,7.5,8.1,49,0.00,CLR,OVC,0.00,WeatherDisplay:10.37,2013-01-14 22:06:00,
2013-01-14 17:11:00,80.3,60.5,30.16,SSE,158,4.0,4.6,51,0.00,CLR,OVC,0.00,WeatherDisplay:10.37,2013-01-14 22:11:00,
2013-01-14 17:16:00,80.2,60.4,30.16,South,185,5.0,5.8,51,0.00,CLR,OVC,0.00,WeatherDisplay:10.37,2013-01-14 22:16:00,
2013-01-14 17:21:00,80.0,60.2,30.16,SSE,161,6.6,9.2,51,0.00,CLR,OVC,0.00,WeatherDisplay:10.37,2013-01-14 22:21:00,
2013-01-14 17:26:00,79.7,60.5,30.16,South,191,3.6,3.6,52,0.00,CLR,OVC,0.00,WeatherDisplay:10.37,2013-01-14 22:26:00,
2013-01-14 17:31:00,79.2,60.1,30.16,South,189,3.4,4.6,52,0.00,CLR,OVC,0.00,WeatherDisplay:10.37,2013-01-14 22:31:00,
2013-01-14 17:36:00,78.9,60.3,30.16,SSW,196,3.6,5.8,53,0.00,CLR,OVC,0.00,WeatherDisplay:10.37,2013-01-14 22:36:00,
2013-01-14 17:41:00,78.4,60.4,30.16,SSE,168,3.4,4.6,54,0.00,CLR,OVC,0.00,WeatherDisplay:10.37,2013-01-14 22:41:00,
2013-01-14 17:46:00,78.2,60.2,30.16,SSE,150,2.8,4.6,54,0.00,CLR,OVC,0.00,WeatherDisplay:10.37,2013-01-14 22:46:00,
2013-01-14 17:51:00,77.9,60.4,30.17,SSE,162,1.5,3.5,55,0.00,CLR,OVC,0.00,WeatherDisplay:10.37,2013-01-14 22:51:00,
2013-01-14 17:56:00,77.5,60.6,30.17,SSE,162,0.0,0.0,56,0.00,CLR,OVC,0.00,WeatherDisplay:10.37,2013-01-14 22:56:00,
2013-01-14 18:01:00,77.3,60.9,30.17,SSE,162,0.0,0.0,57,0.00,CLR,OVC,0.00,WeatherDisplay:10.37,2013-01-14 23:01:00,
2013-01-14 18:06:00,77.2,60.8,30.17,South,179,0.6,1.1,57,0.00,CLR,OVC,0.00,WeatherDisplay:10.37,2013-01-14 23:06:00,
2013-01-14 18:11:00,76.8,60.4,30.17,SSE,164,0.5,2.3,57,0.00,CLR,OVC,0.00,WeatherDisplay:10.37,2013-01-14 23:11:00,
2013-01-14 18:16:00,76.6,60.7,30.17,South,175,1.8,2.3,58,0.00,CLR,OVC,0.00,WeatherDisplay:10.37,2013-01-14 23:16:00,
2013-01-14 18:22:00,76.0,60.6,30.17,South,188,2.2,2.3,59,0.00,CLR,OVC,0.00,WeatherDisplay:10.37,2013-01-14 23:22:00,
2013-01-14 18:27:00,75.6,60.7,30.17,South,181,2.4,3.5,60,0.00,CLR,OVC,0.00,WeatherDisplay:10.37,2013-01-14 23:27:00,
2013-01-14 18:32:00,75.2,63.5,30.17,South,185,2.4,3.5,67,0.00,CLR,OVC,0.00,WeatherDisplay:10.37,2013-01-14 23:32:00,
2013-01-14 18:37:00,74.9,63.6,30.17,SSE,165,1.6,2.3,68,0.00,CLR,OVC,0.00,WeatherDisplay:10.37,2013-01-14 23:37:00,
2013-01-14 18:42:00,74.6,63.3,30.17,SSE,154,0.2,1.1,68,0.00,CLR,OVC,0.00,WeatherDisplay:10.37,2013-01-14 23:42:00,
2013-01-14 18:47:00,74.3,63.5,30.17,SE,130,0.0,1.1,69,0.00,CLR,OVC,0.00,WeatherDisplay:10.37,2013-01-14 23:47:00,
2013-01-14 18:52:00,74.0,63.6,30.17,SE,130,0.0,0.0,70,0.00,CLR,OVC,0.00,WeatherDisplay:10.37,2013-01-14 23:52:00,
2013-01-14 18:57:00,73.6,63.2,30.17,SE,130,0.0,0.0,70,0.00,CLR,OVC,0.00,WeatherDisplay:10.37,2013-01-14 23:57:00,
2013-01-14 19:02:00,73.4,63.8,30.17,SE,130,0.0,0.0,72,0.00,CLR,OVC,0.00,WeatherDisplay:10.37,2013-01-15 00:02:00,
2013-01-14 19:07:00,73.0,63.4,30.17,SE,143,0.8,1.1,72,0.00,CLR,OVC,0.00,WeatherDisplay:10.37,2013-01-15 00:07:00,
2013-01-14 19:12:00,72.5,63.4,30.17,SSE,148,1.4,2.3,73,0.00,CLR,OVC,0.00,WeatherDisplay:10.37,2013-01-15 00:12:00,
2013-01-14 19:17:00,72.1,63.4,30.17,ESE,121,0.0,0.0,74,0.00,CLR,OVC,0.00,WeatherDisplay:10.37,2013-01-15 00:17:00,
2013-01-14 19:22:00,71.8,63.1,30.17,ESE,121,0.0,0.0,74,0.00,CLR,OVC,0.00,WeatherDisplay:10.37,2013-01-15 00:22:00,
2013-01-14 19:27:00,71.8,63.1,30.17,ESE,121,0.0,0.0,74,0.00,CLR,OVC,0.00,WeatherDisplay:10.37,2013-01-15 00:27:00,
2013-01-14 19:32:00,71.6,62.9,30.17,ESE,121,0.0,0.0,74,0.00,CLR,OVC,0.00,WeatherDisplay:10.37,2013-01-15 00:32:00,
2013-01-14 19:37:00,71.5,62.8,30.17,ESE,121,0.0,0.0,74,0.00,CLR,OVC,0.00,WeatherDisplay:10.37,2013-01-15 00:37:00,
2013-01-14 19:42:00,71.4,62.7,30.17,ESE,121,0.0,0.0,74,0.00,CLR,OVC,0.00,WeatherDisplay:10.37,2013-01-15 00:42:00,
2013-01-14 19:47:00,71.2,63.2,30.17,ESE,121,0.0,0.0,76,0.00,CLR,OVC,0.00,WeatherDisplay:10.37,2013-01-15 00:47:00,
2013-01-14 19:52:00,71.0,63.4,30.17,ESE,121,0.0,0.0,77,0.00,CLR,OVC,0.00,WeatherDisplay:10.37,2013-01-15 00:52:00,
2013-01-14 19:57:00,70.7,63.1,30.17,ESE,121,0.0,0.0,77,0.00,CLR,OVC,0.00,WeatherDisplay:10.37,2013-01-15 00:57:00,
2013-01-14 20:02:00,70.7,62.8,30.17,ESE,121,0.0,0.0,76,0.00,CLR,OVC,0.00,WeatherDisplay:10.37,2013-01-15 01:02:00,
2013-01-14 20:07:00,70.5,62.6,30.17,ESE,121,0.0,0.0,76,0.00,CLR,OVC,0.00,WeatherDisplay:10.37,2013-01-15 01:07:00,
2013-01-14 20:12:00,70.3,62.4,30.17,ESE,121,0.0,0.0,76,0.00,CLR,OVC,0.00,WeatherDisplay:10.37,2013-01-15 01:12:00,
2013-01-14 20:17:00,70.2,61.9,30.17,ESE,121,0.0,0.0,75,0.00,CLR,OVC,0.00,WeatherDisplay:10.37,2013-01-15 01:17:00,
2013-01-14 20:22:00,70.0,61.7,30.17,ESE,121,0.0,0.0,75,0.00,CLR,OVC,0.00,WeatherDisplay:10.37,2013-01-15 01:22:00,
2013-01-14 20:27:00,69.9,62.0,30.17,ESE,121,0.0,0.0,76,0.00,CLR,OVC,0.00,WeatherDisplay:10.37,2013-01-15 01:27:00,
2013-01-14 20:32:00,69.8,61.9,30.17,ESE,121,0.0,0.0,76,0.00,CLR,OVC,0.00,WeatherDisplay:10.37,2013-01-15 01:32:00,
2013-01-14 20:37:00,69.6,61.7,30.17,ESE,121,0.0,0.0,76,0.00,CLR,OVC,0.00,WeatherDisplay:10.37,2013-01-15 01:37:00,
2013-01-14 20:42:00,69.4,61.9,30.17,ESE,121,0.0,0.0,77,0.00,CLR,OVC,0.00,WeatherDisplay:10.37,2013-01-15 01:42:00,
2013-01-14 20:47:00,69.5,62.0,30.17,ESE,121,0.0,0.0,77,0.00,CLR,OVC,0.00,WeatherDisplay:10.37,2013-01-15 01:47:00,
2013-01-14 20:52:00,69.4,61.9,30.17,ESE,121,0.0,0.0,77,0.00,CLR,OVC,0.00,WeatherDisplay:10.37,2013-01-15 01:52:00,
2013-01-14 20:57:00,69.1,61.6,30.17,ESE,121,0.0,0.0,77,0.00,CLR,OVC,0.00,WeatherDisplay:10.37,2013-01-15 01:57:00,
2013-01-14 21:02:00,68.9,61.8,30.17,ESE,121,0.0,0.0,78,0.00,CLR,OVC,0.00,WeatherDisplay:10.37,2013-01-15 02:02:00,
2013-01-14 21:07:00,68.7,61.6,30.17,ESE,121,0.0,0.0,78,0.00,CLR,OVC,0.00,WeatherDisplay:10.37,2013-01-15 02:07:00,
2013-01-14 21:12:00,68.7,61.6,30.17,ESE,121,0.0,0.0,78,0.00,CLR,OVC,0.00,WeatherDisplay:10.37,2013-01-15 02:12:00,
2013-01-14 21:17:00,68.6,61.8,30.17,ESE,121,0.0,0.0,79,0.00,CLR,OVC,0.00,WeatherDisplay:10.37,2013-01-15 02:17:00,
2013-01-14 21:22:00,68.5,61.7,30.18,ESE,121,0.0,0.0,79,0.00,CLR,OVC,0.00,WeatherDisplay:10.37,2013-01-15 02:22:00,
2013-01-14 21:27:00,68.4,61.6,30.18,ESE,121,0.0,0.0,79,0.00,CLR,OVC,0.00,WeatherDisplay:10.37,2013-01-15 02:27:00,
2013-01-14 21:32:00,68.4,62.0,30.18,ESE,121,0.0,0.0,80,0.00,CLR,OVC,0.00,WeatherDisplay:10.37,2013-01-15 02:32:00,
2013-01-14 21:37:00,68.4,62.0,30.18,ESE,121,0.0,0.0,80,0.00,CLR,OVC,0.00,WeatherDisplay:10.37,2013-01-15 02:37:00,
2013-01-14 21:42:00,68.4,62.0,30.18,ESE,121,0.0,0.0,80,0.00,CLR,OVC,0.00,WeatherDisplay:10.37,2013-01-15 02:42:00,
2013-01-14 21:47:00,68.2,61.8,30.18,ESE,121,0.0,0.0,80,0.00,CLR,OVC,0.00,WeatherDisplay:10.37,2013-01-15 02:47:00,
2013-01-14 21:52:00,68.0,61.9,30.18,ESE,121,0.0,0.0,81,0.00,CLR,OVC,0.00,WeatherDisplay:10.37,2013-01-15 02:52:00,
2013-01-14 21:57:00,68.0,61.9,30.18,ESE,121,0.0,0.0,81,0.00,CLR,OVC,0.00,WeatherDisplay:10.37,2013-01-15 02:57:00,
2013-01-14 22:02:00,68.0,61.9,30.19,ESE,121,0.0,0.0,81,0.00,CLR,OVC,0.00,WeatherDisplay:10.37,2013-01-15 03:02:00,
2013-01-14 22:07:00,67.9,61.9,30.19,ESE,121,0.0,0.0,81,0.00,CLR,OVC,0.00,WeatherDisplay:10.37,2013-01-15 03:07:00,
2013-01-14 22:12:00,67.9,62.2,30.19,ESE,121,0.0,0.0,82,0.00,CLR,OVC,0.00,WeatherDisplay:10.37,2013-01-15 03:12:00,
2013-01-14 22:17:00,67.7,62.0,30.18,ESE,121,0.0,0.0,82,0.00,CLR,OVC,0.00,WeatherDisplay:10.37,2013-01-15 03:17:00,
2013-01-14 22:22:00,67.5,61.8,30.18,ESE,113,0.5,0.8,82,0.00,CLR,OVC,0.00,WeatherDisplay:10.37,2013-01-15 03:22:00,
2013-01-14 22:27:00,67.4,61.7,30.18,SE,130,0.0,0.0,82,0.00,CLR,OVC,0.00,WeatherDisplay:10.37,2013-01-15 03:27:00,
2013-01-14 22:32:00,67.4,62.1,30.19,SE,130,0.0,0.0,83,0.00,CLR,OVC,0.00,WeatherDisplay:10.37,2013-01-15 03:32:00,
2013-01-14 22:37:00,67.5,62.2,30.18,East,95,0.0,1.1,83,0.00,CLR,OVC,0.00,WeatherDisplay:10.37,2013-01-15 03:37:00,
2013-01-14 22:42:00,67.5,62.2,30.18,East,95,0.0,0.0,83,0.00,CLR,OVC,0.00,WeatherDisplay:10.37,2013-01-15 03:42:00,
2013-01-14 22:47:00,67.3,62.0,30.18,East,100,0.3,1.1,83,0.00,CLR,OVC,0.00,WeatherDisplay:10.37,2013-01-15 03:47:00,
2013-01-14 22:52:00,67.1,61.8,30.18,SE,136,3.1,4.6,83,0.00,CLR,OVC,0.00,WeatherDisplay:10.37,2013-01-15 03:52:00,
2013-01-14 22:57:00,66.9,61.6,30.17,SE,137,3.5,4.6,83,0.00,CLR,OVC,0.00,WeatherDisplay:10.37,2013-01-15 03:57:00,
2013-01-14 23:02:00,66.8,61.5,30.18,SE,145,3.2,3.5,83,0.00,CLR,OVC,0.00,WeatherDisplay:10.37,2013-01-15 04:02:00,
2013-01-14 23:07:00,66.8,61.5,30.18,SE,141,2.6,3.5,83,0.00,CLR,OVC,0.00,WeatherDisplay:10.37,2013-01-15 04:07:00,
2013-01-14 23:12:00,66.9,61.6,30.18,SE,136,1.6,2.3,83,0.00,CLR,OVC,0.00,WeatherDisplay:10.37,2013-01-15 04:12:00,
2013-01-14 23:17:00,66.9,61.6,30.18,SE,127,0.5,1.1,83,0.00,CLR,OVC,0.00,WeatherDisplay:10.37,2013-01-15 04:17:00,
2013-01-14 23:22:00,67.1,61.8,30.18,SE,127,0.0,0.0,83,0.00,CLR,OVC,0.00,WeatherDisplay:10.37,2013-01-15 04:22:00,
2013-01-14 23:27:00,67.2,61.9,30.18,SE,127,0.0,0.0,83,0.00,CLR,OVC,0.00,WeatherDisplay:10.37,2013-01-15 04:27:00,
2013-01-14 23:32:00,67.1,61.8,30.18,SE,127,0.0,0.0,83,0.00,CLR,OVC,0.00,WeatherDisplay:10.37,2013-01-15 04:32:00,
2013-01-14 23:37:00,66.9,61.6,30.18,SE,127,0.0,0.0,83,0.00,CLR,OVC,0.00,WeatherDisplay:10.37,2013-01-15 04:37:00,
2013-01-14 23:42:00,66.8,61.8,30.18,SE,127,0.0,0.0,84,0.00,CLR,OVC,0.00,WeatherDisplay:10.37,2013-01-15 04:42:00,
2013-01-14 23:47:00,66.7,61.7,30.18,SE,127,0.0,0.0,84,0.00,CLR,OVC,0.00,WeatherDisplay:10.37,2013-01-15 04:47:00,
2013-01-14 23:52:00,66.7,61.7,30.18,SE,127,0.0,0.0,84,0.00,CLR,OVC,0.00,WeatherDisplay:10.37,2013-01-15 04:52:00,
2013-01-14 23:57:00,66.4,61.4,30.18,SE,127,0.0,0.0,84,0.00,CLR,OVC,0.00,WeatherDisplay:10.37,2013-01-15 04:57:00,